This is the latest recevied weather packets stored in our database for station/object Reichnbch. If no packets are shown the sender has not sent any weather packets the latest 10 day(s).
| Time | Temp. | Humidity | Pressure | Rain* | Wind** | Luminosity | Snow |
|---|---|---|---|---|---|---|---|
| 1778041932 | 8.33° C | 75% | 1008.1 hPa | 0.25 mm | - | - | - |
| 1778040131 | 7.78° C | 75% | 1008.3 hPa | 0.25 mm | - | - | - |
| 1778038331 | 7.78° C | 76% | 1008.8 hPa | 0.25 mm | - | - | - |
| 1778036532 | 7.78° C | 76% | 1008.5 hPa | 0.25 mm | - | - | - |
| 1778034732 | 8.33° C | 76% | 1008.6 hPa | 0.25 mm | - | - | - |
| 1778032932 | 8.89° C | 76% | 1008.9 hPa | 0.25 mm | - | - | - |
| 1778031131 | 8.89° C | 76% | 1009 hPa | 0.25 mm | - | - | - |
| 1778029332 | 8.89° C | 76% | 1009 hPa | 0 mm | - | - | - |
| 1778027529 | 9.44° C | 76% | 1009 hPa | 0 mm | - | - | - |
| 1778025729 | 9.44° C | 76% | 1009.5 hPa | 0 mm | - | - | - |
| 1778023929 | 10.56° C | 76% | 1009.7 hPa | 0 mm | - | - | - |
| 1778022129 | 11.11° C | 75% | 1009.6 hPa | 0 mm | - | - | - |
| 1778020330 | 11.11° C | 76% | 1009.6 hPa | 0 mm | - | - | - |
| 1778018529 | 11.67° C | 76% | 1009.5 hPa | 0 mm | - | - | - |
| 1778016731 | 11.67° C | 76% | 1009.6 hPa | 4.57 mm | - | - | - |
| 1778014935 | 12.22° C | 76% | 1009.7 hPa | 4.57 mm | - | - | - |
| 1778013129 | 12.22° C | 77% | 1009.4 hPa | 4.57 mm | - | - | - |
| 1778011330 | 12.78° C | 77% | 1009 hPa | 4.57 mm | - | - | - |
| 1778009529 | 12.78° C | 77% | 1008.7 hPa | 4.57 mm | - | - | - |
| 1778007735 | 12.78° C | 77% | 1008.6 hPa | 4.57 mm | - | - | - |
| 1778005932 | 13.33° C | 78% | 1008.5 hPa | 4.32 mm | - | - | - |
| 1778004131 | 13.89° C | 78% | 1008.3 hPa | 4.32 mm | - | - | - |
| 1778002330 | 13.89° C | 80% | 1008.6 hPa | 3.56 mm | - | - | - |
| 1778000530 | 14.44° C | 81% | 1008.2 hPa | 3.56 mm | - | - | - |
| 1777998731 | 14.44° C | 81% | 1008.2 hPa | 3.3 mm | - | - | - |
* Rain since midnight (hover to see other rain measurements)
** Current wind speed in m/s (hover to see current wind gust speed)